Wind_Speed
23 21 19 18 18 18 17 16 15 16 17 15 13 14 16 17 19 20 19 18 18 19 19 20 20 20 19 19 20 19 19 19 20 21 22 22 23 24 25 25 25 24 22 21 20 19 19 23 28 30 29 28 29 27 25 25 26 26 28 29 30 29 28
26 23 20 19 20 19 18 17 17 18 19 16 14 14 15 16 19 20 19 18 18 19 20 21 20 20 19 20 19 19 19 19 20 21 21 22 24 26 27 27 26 24 23 22 21 20 19 20 23 28 29 29 31 30 27 26 26 26 27 28 29 30 29
26 23 20 20 20 20 19 18 18 20 19 17 15 15 16 17 19 20 18 17 18 20 21 21 20 20 19 19 19 19 19 20 20 20 22 24 25 27 27 27 26 24 23 23 22 22 21 21 21 23 25 25 29 32 30 29 28 27 27 28 29 30 30
24 22 21 21 22 21 20 19 19 20 18 16 15 16 17 20 21 20 18 17 19 21 21 21 20 20 19 18 18 19 19 20 20 21 23 25 26 27 26 26 25 25 24 24 25 26 25 25 23 22 23 22 24 28 30 31 30 29 28 29 30 30 30
24 23 22 23 23 21 20 19 19 19 18 16 15 16 19 21 22 20 17 17 19 21 22 21 20 19 18 18 18 18 19 20 21 22 24 25 26 26 25 25 25 25 26 26 27 28 28 27 25 23 23 22 23 26 29 30 31 30 29 29 30 30 30
24 24 24 23 22 20 19 19 19 19 17 16 16 17 18 20 22 20 17 17 19 21 21 21 19 18 18 17 18 18 19 21 22 24 25 26 26 25 25 25 26 26 27 28 28 29 29 28 27 25 24 23 23 24 27 29 30 30 29 29 30 31 31
24 24 24 23 22 19 18 18 19 19 17 17 17 17 17 19 21 18 16 17 19 21 21 20 18 18 17 17 17 18 20 21 23 24 26 26 26 25 26 26 27 28 28 28 29 29 29 29 28 27 25 24 24 24 26 29 29 29 29 29 30 30 31
23 24 24 23 21 19 18 19 19 18 18 18 18 18 18 19 19 17 16 18 19 20 19 18 18 18 17 17 17 19 20 22 24 25 26 26 26 26 27 28 28 29 29 29 29 29 29 29 29 28 27 26 24 24 25 28 30 29 28 28 29 30 30
23 24 23 22 20 19 19 19 19 18 19 19 19 19 18 19 19 17 17 18 18 19 18 18 18 18 17 17 17 19 21 23 25 26 27 27 27 27 28 28 29 29 30 30 29 29 29 29 29 29 29 28 26 24 23 25 29 30 27 27 29 29 30
23 23 22 21 20 19 19 18 18 19 19 19 20 20 19 19 19 17 17 17 17 17 18 18 19 18 18 17 18 20 22 24 26 27 27 27 27 28 28 28 29 30 30 30 29 29 29 30 30 30 30 29 28 25 23 22 26 28 27 26 27 28 29
22 22 22 21 20 19 18 18 19 20 20 20 21 20 19 18 18 17 16 16 16 17 18 19 19 18 18 18 19 21 23 25 27 28 28 28 28 28 28 28 29 29 30 29 29 29 29 30 31 31 31 30 28 27 25 23 24 27 26 25 26 27 27
22 22 21 20 20 19 16 17 19 21 21 22 22 20 18 17 18 17 15 15 16 17 19 19 19 19 18 19 20 22 24 26 28 29 28 28 27 27 27 28 28 29 29 29 29 29 29 30 31 31 30 30 28 27 26 25 24 26 26 25 25 26 27
21 20 19 19 19 18 17 19 21 22 22 22 21 19 16 17 18 16 15 15 17 18 19 19 19 19 19 20 22 23 25 27 29 29 29 28 27 27 27 27 28 28 28 28 29 29 29 30 30 30 29 28 27 26 26 26 25 26 27 26 26 26 26
20 19 18 18 18 18 18 21 23 23 21 19 18 17 17 18 18 16 15 16 17 19 20 20 20 20 20 21 23 25 27 28 29 29 28 27 27 28 28 27 27 27 27 28 28 29 29 29 28 28 28 27 27 27 27 27 26 27 27 27 27 26 26
20 18 18 17 17 16 17 20 22 21 19 17 16 17 18 18 17 16 16 17 18 19 21 21 21 20 21 23 25 27 28 29 29 29 28 28 29 29 29 28 28 27 27 27 28 28 28 28 28 27 28 28 28 28 28 28 27 27 27 27 28 27 27
19 17 16 16 15 14 14 17 19 19 17 15 15 18 18 18 17 16 16 17 19 21 22 22 21 21 22 25 27 28 29 29 29 29 29 29 30 30 30 29 29 28 27 27 27 27 27 27 28 28 28 29 29 30 29 29 28 28 27 27 27 27 27
16 14 14 15 14 13 14 15 17 17 15 15 16 17 17 17 16 16 17 18 21 22 22 22 22 23 25 27 28 30 30 30 30 29 29 30 30 30 30 29 29 28 27 27 27 27 27 27 28 28 29 30 30 31 31 30 29 28 28 27 27 26 26
14 14 14 14 14 14 15 15 16 17 16 16 17 17 17 17 17 17 18 20 22 23 23 23 23 25 27 28 30 31 30 30 30 30 30 30 30 30 29 29 29 28 27 27 27 27 27 28 28 29 30 31 31 32 31 31 30 29 28 28 27 27 26
14 15 15 15 14 14 15 16 17 17 17 17 17 17 17 18 18 18 19 22 23 23 23 24 25 27 28 30 31 31 31 31 31 30 30 30 30 30 29 29 29 29 28 28 27 27 28 28 29 30 30 31 31 31 31 31 30 29 28 28 27 27 26
15 16 16 15 15 15 16 16 16 17 17 17 17 18 18 18 19 19 21 23 24 24 24 25 27 28 30 31 32 32 32 31 31 31 31 30 30 30 30 30 30 29 28 28 27 28 28 29 30 30 31 31 31 31 31 31 30 30 29 28 27 27 26
16 16 16 15 14 14 14 14 15 17 17 17 17 18 19 19 19 21 22 23 24 24 25 27 28 30 31 32 32 32 32 31 31 31 31 31 31 31 30 30 30 29 28 28 28 28 29 30 31 31 31 31 31 31 31 30 30 30 30 29 28 28 27
15 15 15 14 13 13 12 12 14 16 16 16 17 18 19 19 20 22 23 24 25 26 27 28 29 30 31 32 32 32 32 31 31 32 32 32 32 31 31 30 29 28 28 28 29 30 31 31 31 31 32 32 32 31 31 31 31 30 30 30 29 29 28
14 15 14 13 13 12 12 13 14 14 14 15 17 18 18 19 21 22 23 24 26 27 28 29 30 31 32 32 32 32 31 31 32 32 32 33 32 31 30 29 28 28 28 28 29 31 32 32 32 32 33 34 33 33 32 31 31 31 31 30 30 30 29
17 16 15 14 13 12 12 13 13 12 13 15 16 17 18 20 21 22 24 25 27 28 29 30 31 32 32 33 32 32 31 32 32 32 32 32 31 30 29 28 28 28 28 29 30 32 32 32 32 32 33 34 34 33 33 33 32 32 32 31 31 30 30
20 18 16 14 13 13 13 13 12 12 14 15 16 17 19 21 22 23 25 27 28 29 30 31 32 33 33 32 32 31 32 32 32 31 31 30 29 29 28 27 27 28 29 30 31 32 32 32 32 33 33 33 33 34 34 33 33 32 32 32 32 32 32
20 18 16 15 15 15 14 13 13 13 14 15 17 19 20 22 24 25 27 28 29 30 32 33 33 33 32 31 31 32 32 32 31 30 29 28 28 28 27 27 28 29 30 31 32 32 32 32 32 33 33 33 33 34 34 33 32 32 32 32 32 32 32
20 18 17 16 16 16 15 15 15 16 16 17 18 20 21 24 26 27 28 29 30 31 32 33 32 31 31 31 31 31 31 30 30 28 27 27 27 27 27 28 28 30 31 32 32 32 32 32 32 32 32 32 33 33 33 32 32 32 32 33 33 33 33
19 17 17 17 17 17 16 17 18 18 19 20 21 22 24 26 27 27 27 28 30 31 32 32 31 30 30 30 30 29 29 29 28 26 26 26 27 27 28 29 30 31 32 32 32 32 32 32 32 32 31 32 32 32 32 33 33 34 34 34 35 35 35
17 17 17 19 19 19 19 19 19 20 21 22 23 25 26 27 26 26 26 28 30 31 31 30 30 29 29 29 28 28 28 27 26 25 26 26 27 27 29 30 31 31 32 32 32 32 32 32 31 31 31 32 32 33 33 34 34 35 36 36 36 36 36
18 18 19 21 22 23 22 20 18 19 22 24 25 26 27 26 26 26 27 29 29 29 30 29 28 28 28 28 28 28 27 25 25 25 26 26 27 28 30 31 31 31 31 31 31 31 31 31 31 31 31 32 33 34 35 36 37 37 37 37 37 37 36
18 18 17 18 19 21 21 20 19 21 24 25 25 26 27 27 27 28 29 29 29 29 29 28 27 27 27 28 27 27 25 25 25 26 27 27 28 29 30 30 30 31 31 31 31 30 30 30 31 32 33 34 35 36 37 38 38 39 39 38 38 37 36
18 17 15 14 15 17 18 19 21 22 24 24 24 25 27 28 29 29 29 29 28 28 28 27 27 27 27 27 26 25 25 25 26 26 27 27 28 29 29 29 30 30 31 31 30 30 31 32 33 34 35 36 37 38 39 39 40 40 40 39 39 38 37
21 20 18 16 16 16 17 19 21 21 22 22 23 25 27 28 29 29 29 28 28 28 28 27 27 27 27 26 26 25 25 25 26 26 27 28 28 29 29 29 30 30 30 30 30 31 32 33 34 35 37 38 38 39 40 40 39 39 39 38 38 37 37
21 21 21 20 20 20 20 22 22 21 21 22 24 26 27 27 28 28 28 28 28 28 28 27 27 26 26 25 25 24 25 25 25 26 27 28 28 28 29 29 30 29 29 29 30 32 33 34 35 36 38 39 39 39 39 39 38 37 37 36 36 37 37
21 20 20 20 21 22 22 24 24 23 22 23 25 26 26 26 27 28 28 27 27 27 27 27 26 25 25 25 24 24 24 24 25 26 27 27 28 28 29 29 28 28 29 30 31 32 34 35 36 37 38 38 38 38 38 38 37 36 36 36 36 37 37
23 22 21 21 21 22 23 24 24 23 22 23 24 25 26 27 28 28 27 26 26 27 28 27 26 25 25 24 24 24 24 24 25 26 26 27 27 28 28 27 27 28 29 31 32 33 34 35 36 37 37 37 37 36 36 36 36 36 36 36 37 36 36
25 23 22 22 22 23 24 24 24 23 23 23 24 25 27 28 29 27 26 26 27 28 28 26 25 25 24 23 23 23 23 24 25 26 26 27 27 27 27 27 27 29 30 31 33 34 35 36 36 37 36 36 35 35 35 35 35 35 36 36 36 35 34
Wind_Direction
236 238 241 242 242 239 236 239 246 252 255 253 246 240 239 243 249 250 251 256 264 270 272 272 272 274 277 280 282 288 295 301 305 308 309 308 308 309 311 310 309 308 307 306 304 303 304 306 308 310 311 311 308 307 309 311 311 313 315 316 316 315 313
234 237 241 242 242 241 239 241 244 248 252 251 244 238 236 241 246 247 249 257 266 271 273 272 273 275 277 279 285 291 297 300 304 306 308 308 310 311 312 311 310 310 310 309 309 308 308 307 307 309 311 312 310 309 309 310 309 310 312 314 313 313 313
233 235 239 241 242 242 241 240 242 245 248 249 246 240 238 243 247 247 249 258 267 270 272 272 274 276 278 282 289 294 297 300 304 307 309 310 312 312 312 312 311 311 312 312 311 312 312 311 310 308 308 310 310 309 310 310 309 309 311 312 311 312 312
233 234 237 239 240 239 239 239 241 244 246 246 246 243 245 249 250 247 249 258 266 270 272 273 274 276 281 286 292 295 299 303 306 310 311 312 312 312 312 312 312 312 313 313 314 315 315 315 314 311 309 309 308 307 307 308 307 308 309 310 310 311 311
231 232 234 238 239 239 239 239 240 241 241 240 241 244 250 252 248 243 246 257 265 270 272 274 275 279 284 289 293 297 301 305 309 311 312 313 312 312 312 312 312 313 313 313 314 315 316 315 315 314 312 311 309 306 304 304 305 305 307 308 308 309 310
228 230 235 240 241 239 238 236 236 237 236 235 237 243 248 247 240 237 245 257 265 270 272 274 277 281 287 292 297 301 304 307 311 313 313 313 312 311 312 313 313 312 312 313 314 315 315 315 314 314 312 311 309 305 302 301 302 303 305 306 306 307 308
227 230 236 240 241 239 236 233 233 234 232 232 235 237 240 238 234 236 246 257 264 269 272 275 280 286 291 295 299 302 306 309 312 313 313 312 311 310 311 313 313 313 313 314 315 316 316 315 313 312 311 310 309 306 304 302 302 303 304 304 305 306 307
226 229 235 239 241 241 238 235 234 232 231 232 231 227 231 237 237 237 246 257 264 269 273 279 284 289 292 296 300 303 307 311 313 313 312 311 311 310 310 311 312 313 314 316 316 316 316 314 313 311 310 310 310 309 307 305 304 305 306 305 304 305 305
224 228 233 237 239 240 239 238 236 232 232 231 225 220 228 239 239 238 247 257 265 271 277 283 287 290 294 297 300 304 309 312 312 311 311 311 311 310 310 311 312 314 315 317 317 317 316 315 313 313 312 312 312 311 309 306 305 306 307 306 305 304 303
223 227 231 234 236 237 237 234 232 230 230 226 220 222 233 240 239 241 250 259 267 274 280 285 289 291 294 297 301 306 310 311 310 310 310 310 310 309 309 310 313 315 316 318 318 317 317 316 315 314 313 313 314 313 312 308 304 304 306 305 304 304 304
222 227 231 234 238 241 236 227 225 224 221 219 220 226 235 239 240 243 251 261 270 277 283 287 290 292 294 298 302 306 308 309 308 308 309 309 309 309 310 312 314 316 317 318 318 317 316 316 315 315 314 315 315 315 314 312 307 305 306 305 303 304 305
222 228 234 240 244 245 234 221 221 221 217 218 222 227 233 239 243 246 253 265 273 279 285 288 289 291 293 297 301 305 307 307 306 307 308 309 309 309 311 314 315 316 316 317 317 317 316 316 315 315 315 315 316 316 316 316 312 308 308 308 305 305 306
223 231 240 246 247 245 230 214 216 221 219 220 223 227 234 241 243 247 255 266 273 280 285 286 287 289 292 296 300 303 305 305 305 307 308 309 309 311 313 315 315 315 316 316 317 317 317 317 316 316 316 317 318 319 319 318 316 312 311 310 308 306 307
226 235 244 247 246 243 229 213 214 220 220 221 226 234 238 238 240 246 255 264 273 279 282 283 285 287 291 295 299 300 302 303 306 308 310 311 312 314 315 315 315 316 316 317 318 318 318 317 316 316 317 319 320 321 320 319 317 314 312 312 310 309 308
231 240 247 247 242 236 227 217 215 214 213 220 232 238 236 234 237 246 255 266 275 279 281 282 283 286 290 293 295 298 300 304 308 312 314 315 316 316 316 316 316 317 318 318 318 318 318 317 316 317 319 320 322 322 321 320 318 316 314 313 312 310 309
236 240 242 238 230 224 221 216 210 207 213 230 239 235 232 232 238 248 259 270 276 278 279 280 282 285 288 291 293 297 301 306 312 316 317 317 317 316 316 316 317 318 319 319 318 317 316 316 317 318 320 321 321 321 321 320 319 317 315 313 312 310 309
235 233 228 223 216 210 209 208 207 215 232 245 241 233 232 235 242 252 263 271 275 276 277 278 281 284 287 291 294 298 303 310 316 318 318 317 317 316 316 316 317 318 318 318 317 316 316 316 318 319 320 321 321 320 320 319 318 317 315 313 311 309 308
228 220 216 216 214 211 211 214 220 231 240 241 237 235 235 238 246 255 264 270 273 274 276 278 280 283 288 292 296 300 307 314 318 318 317 317 317 316 316 317 317 318 317 317 317 316 316 317 318 319 320 320 320 320 320 319 318 317 315 313 311 309 307
223 216 214 217 219 221 224 227 231 235 235 232 231 232 235 241 249 257 264 269 271 272 275 277 280 285 290 293 297 303 311 316 318 317 316 317 317 318 317 317 317 317 316 316 316 316 317 318 318 319 319 319 320 320 320 319 318 316 314 312 310 308 307
223 219 217 218 220 224 228 229 231 230 228 225 224 229 236 244 252 259 265 268 269 271 274 277 281 286 290 295 300 307 312 316 316 316 316 317 318 318 318 317 316 315 315 315 315 316 317 317 318 318 320 321 321 320 319 318 317 315 314 312 310 309 308
222 217 214 214 216 220 222 223 225 225 225 224 225 231 239 247 254 260 264 266 268 271 274 278 283 287 292 297 303 308 312 315 315 315 316 318 318 318 316 315 314 313 314 314 315 316 316 317 318 320 322 322 321 320 318 317 316 315 313 312 311 310 309
213 208 205 206 209 212 215 219 222 226 228 230 231 235 242 249 255 260 262 265 268 272 275 279 284 289 295 299 304 308 312 314 314 316 317 317 317 316 314 313 312 313 314 315 315 315 316 317 319 321 322 322 321 320 319 317 316 315 314 313 312 311 310
208 205 203 204 209 213 216 221 225 227 229 233 237 241 247 252 257 260 263 266 269 272 276 281 286 292 296 300 304 308 312 313 314 315 316 315 314 313 312 312 312 314 315 315 315 315 316 318 321 322 322 322 321 321 320 319 317 316 315 314 313 312 312
213 211 208 208 210 215 220 226 231 232 233 236 241 246 251 254 257 260 264 266 270 273 277 283 288 294 298 301 304 308 311 313 313 313 314 313 313 312 312 312 312 313 314 314 314 315 317 319 322 323 322 321 321 321 320 319 318 316 316 314 314 313 312
217 215 214 213 215 220 225 232 237 240 242 246 249 252 254 256 259 262 264 267 271 275 280 285 290 294 298 301 305 309 310 310 310 311 313 313 313 313 312 312 312 312 313 313 314 316 318 321 322 322 321 321 321 321 319 318 317 316 315 314 314 313 312
217 217 218 219 222 227 233 238 241 243 248 252 255 257 259 261 263 265 267 270 274 278 282 286 289 294 298 302 305 307 307 308 310 312 314 314 313 312 312 311 311 312 313 314 316 318 320 322 321 320 320 321 321 319 318 317 316 316 315 314 314 313 312
214 218 223 226 230 235 240 243 245 247 250 254 256 259 261 262 263 266 269 273 277 280 283 286 289 294 298 301 304 305 306 309 311 313 313 313 312 312 311 311 312 313 314 316 318 319 321 321 320 319 320 321 320 318 317 317 316 316 316 315 314 314 313
215 222 228 232 236 239 242 245 247 249 251 253 254 256 256 257 260 265 270 275 278 281 283 286 290 294 298 300 302 304 307 310 311 312 312 311 311 311 311 312 313 315 317 319 320 320 320 319 319 320 320 320 318 318 317 317 317 317 317 316 315 315 314
219 224 230 234 237 239 241 245 248 250 251 251 251 251 251 254 259 264 270 276 280 282 284 287 290 294 297 299 301 304 308 309 310 310 310 310 311 312 313 315 317 318 320 320 320 319 318 319 320 320 320 318 318 318 318 318 318 317 316 316 315 314 313
219 224 231 238 239 237 238 243 249 253 254 252 250 249 250 253 258 264 272 279 282 283 284 286 290 295 297 298 301 305 307 308 309 310 310 311 313 314 316 318 320 320 320 319 319 319 319 320 321 320 319 318 318 318 318 318 318 317 316 315 314 313 312
219 226 235 241 239 233 231 236 242 247 250 250 247 248 251 255 260 268 276 281 282 282 285 288 292 295 295 297 302 305 307 308 309 310 311 313 315 317 319 320 319 319 319 319 319 320 320 321 320 320 319 319 318 318 318 317 317 316 315 314 313 312 312
215 217 223 225 223 222 224 231 237 241 245 247 248 252 257 261 265 271 277 279 280 283 286 290 292 293 294 298 304 306 306 307 309 310 313 315 318 319 319 319 319 319 320 320 321 321 321 320 320 320 319 319 318 318 318 317 317 316 315 314 314 313 313
218 219 225 229 232 233 234 236 240 242 245 249 254 258 262 265 267 271 275 277 280 283 286 288 290 291 295 301 304 304 304 306 308 311 315 317 318 319 319 319 320 320 320 320 320 320 320 320 320 319 319 318 318 318 318 317 317 316 316 316 315 315 314
221 225 233 238 241 241 239 239 241 242 246 253 258 261 263 265 268 271 274 277 280 283 285 287 289 292 298 301 301 301 302 306 310 313 316 317 318 318 318 319 319 318 319 319 319 319 319 319 319 318 318 318 318 318 317 317 317 317 317 317 316 315 315
217 222 228 232 234 234 234 236 239 243 248 255 258 260 262 265 268 271 273 276 280 283 285 287 290 294 298 298 297 299 303 307 311 313 315 315 316 317 316 316 316 317 317 318 318 318 318 318 318 318 318 318 318 318 318 318 319 319 318 318 317 315 315
217 221 227 231 233 234 235 238 242 247 252 255 256 258 262 265 268 270 273 277 282 285 286 288 291 294 295 294 296 299 303 307 310 312 313 314 314 314 313 313 314 315 316 317 317 317 317 317 318 318 318 318 318 319 320 320 321 320 319 318 318 316 316
218 223 228 231 234 237 240 244 247 252 255 257 258 262 265 267 269 271 275 280 284 285 286 288 290 292 291 292 296 300 303 307 309 310 311 310 310 310 310 311 313 314 315 316 316 317 317 317 318 318 318 319 319 320 321 321 321 321 320 319 319 319 318
Height
5800 5801 5802 5802 5803 5804 5804 5804 5805 5806 5806 5807 5807 5807 5808 5810 5811 5813 5813 5814 5815 5815 5816 5817 5817 5817 5817 5816 5816 5815 5814 5812 5811 5809 5807 5806 5805 5804 5803 5802 5801 5800 5799 5799 5797 5797 5796 5792 5787 5785 5784 5782 5780 5780 5780 5779 5777 5776 5774 5771 5769 5767 5765
5797 5799 5799 5800 5800 5801 5802 5803 5804 5804 5804 5805 5805 5806 5807 5808 5810 5811 5812 5812 5813 5814 5815 5815 5815 5815 5815 5814 5814 5813 5812 5811 5809 5807 5806 5805 5803 5802 5800 5799 5798 5797 5796 5795 5794 5793 5793 5792 5789 5784 5782 5779 5776 5774 5775 5775 5774 5773 5772 5770 5767 5764 5762
5794 5796 5797 5797 5797 5799 5800 5801 5802 5801 5802 5803 5803 5804 5805 5807 5808 5809 5810 5810 5811 5812 5813 5813 5813 5813 5813 5813 5812 5811 5810 5809 5807 5806 5804 5802 5801 5799 5798 5796 5795 5794 5793 5791 5790 5790 5789 5788 5787 5785 5782 5780 5775 5771 5770 5770 5769 5769 5769 5767 5765 5762 5760
5791 5793 5794 5794 5795 5796 5797 5799 5799 5799 5799 5800 5801 5803 5804 5805 5806 5807 5807 5808 5809 5810 5811 5812 5812 5812 5811 5811 5810 5809 5808 5807 5805 5804 5802 5800 5799 5797 5796 5794 5792 5791 5789 5788 5786 5785 5785 5784 5783 5782 5780 5778 5776 5772 5768 5767 5766 5765 5765 5764 5761 5760 5757
5789 5790 5791 5791 5792 5794 5795 5796 5797 5796 5797 5798 5799 5801 5802 5802 5804 5804 5805 5806 5807 5808 5809 5810 5810 5810 5809 5808 5808 5806 5805 5804 5803 5802 5800 5798 5796 5795 5793 5792 5790 5788 5786 5785 5783 5782 5781 5780 5779 5779 5777 5775 5774 5771 5768 5765 5763 5762 5762 5761 5758 5756 5755
5786 5787 5788 5789 5790 5792 5793 5794 5794 5794 5795 5796 5797 5798 5799 5800 5801 5802 5803 5804 5805 5807 5808 5808 5808 5808 5807 5806 5805 5804 5803 5802 5801 5800 5798 5796 5794 5793 5791 5790 5788 5786 5784 5782 5780 5779 5778 5777 5776 5775 5774 5773 5771 5769 5765 5763 5761 5760 5758 5757 5755 5753 5751
5784 5785 5786 5787 5789 5790 5791 5791 5791 5791 5793 5794 5795 5796 5797 5798 5799 5800 5801 5802 5804 5805 5806 5806 5806 5805 5804 5803 5802 5802 5801 5800 5799 5798 5796 5794 5793 5791 5789 5787 5785 5783 5782 5780 5778 5776 5775 5774 5773 5772 5771 5770 5768 5766 5763 5759 5758 5757 5756 5754 5752 5750 5747
5781 5783 5784 5785 5787 5788 5789 5788 5789 5790 5791 5792 5793 5794 5796 5797 5798 5798 5800 5801 5802 5803 5804 5804 5803 5803 5802 5801 5800 5800 5799 5798 5797 5796 5794 5792 5790 5789 5787 5785 5783 5781 5779 5777 5775 5774 5772 5771 5769 5768 5767 5767 5765 5763 5760 5756 5753 5753 5753 5751 5749 5747 5744
5779 5781 5782 5783 5785 5785 5786 5786 5787 5788 5789 5790 5792 5793 5794 5796 5796 5797 5798 5800 5801 5801 5802 5802 5801 5800 5799 5798 5798 5797 5797 5796 5795 5793 5792 5790 5788 5787 5785 5783 5781 5779 5777 5775 5773 5771 5770 5768 5766 5765 5763 5762 5762 5760 5758 5755 5751 5749 5749 5747 5745 5743 5741
5778 5779 5780 5781 5782 5782 5783 5784 5785 5786 5787 5789 5790 5791 5793 5794 5795 5796 5797 5798 5799 5799 5799 5799 5799 5798 5797 5796 5796 5795 5794 5793 5792 5791 5790 5788 5786 5785 5783 5781 5779 5777 5775 5773 5771 5769 5767 5765 5763 5762 5760 5759 5758 5756 5755 5753 5749 5746 5745 5744 5742 5740 5738
5776 5777 5778 5779 5779 5780 5780 5781 5783 5784 5785 5787 5788 5789 5791 5792 5793 5794 5795 5796 5797 5797 5797 5797 5797 5796 5795 5794 5794 5793 5792 5791 5790 5789 5787 5786 5784 5783 5781 5779 5777 5775 5772 5770 5768 5766 5764 5762 5760 5759 5757 5755 5754 5752 5751 5750 5747 5743 5742 5741 5739 5737 5735
5774 5775 5776 5776 5777 5778 5778 5779 5781 5782 5783 5785 5786 5788 5789 5791 5791 5792 5793 5794 5795 5795 5795 5795 5795 5794 5793 5792 5791 5790 5790 5789 5788 5786 5785 5784 5782 5780 5779 5777 5775 5773 5770 5768 5766 5764 5762 5760 5758 5756 5754 5752 5751 5749 5747 5746 5744 5741 5739 5738 5736 5734 5732
5773 5773 5774 5775 5775 5776 5776 5777 5779 5780 5782 5783 5785 5786 5788 5789 5790 5791 5792 5792 5792 5793 5793 5793 5792 5792 5791 5790 5789 5788 5787 5786 5785 5784 5783 5781 5780 5778 5777 5775 5773 5770 5768 5766 5764 5762 5760 5758 5755 5753 5751 5749 5748 5746 5744 5742 5741 5738 5736 5735 5733 5731 5729
5771 5772 5772 5773 5773 5774 5774 5775 5777 5779 5781 5782 5784 5785 5786 5787 5788 5790 5790 5790 5790 5790 5790 5790 5790 5789 5788 5787 5786 5785 5785 5784 5783 5782 5780 5778 5777 5776 5774 5772 5770 5768 5766 5763 5761 5759 5757 5755 5753 5751 5749 5747 5745 5743 5741 5739 5738 5735 5733 5731 5729 5727 5726
5769 5770 5770 5771 5771 5772 5773 5774 5775 5778 5780 5781 5783 5783 5784 5785 5787 5788 5788 5788 5788 5788 5788 5788 5788 5787 5786 5785 5784 5783 5782 5781 5780 5779 5777 5775 5774 5772 5771 5769 5767 5765 5763 5761 5758 5756 5754 5752 5750 5748 5746 5744 5742 5740 5738 5736 5734 5732 5730 5728 5726 5724 5722
5768 5768 5769 5769 5770 5771 5772 5773 5774 5777 5778 5780 5781 5781 5782 5784 5785 5786 5786 5786 5786 5786 5786 5786 5785 5785 5784 5783 5782 5781 5780 5779 5778 5776 5774 5773 5771 5769 5767 5765 5764 5762 5760 5758 5756 5754 5751 5749 5747 5745 5743 5741 5739 5737 5735 5733 5731 5729 5727 5725 5723 5721 5719
5766 5767 5767 5768 5769 5770 5771 5772 5774 5775 5777 5778 5778 5779 5781 5782 5783 5784 5784 5784 5784 5784 5784 5784 5783 5782 5781 5780 5779 5778 5778 5777 5775 5773 5771 5770 5768 5766 5764 5763 5761 5759 5757 5755 5753 5751 5749 5747 5744 5742 5740 5738 5736 5734 5732 5730 5728 5726 5724 5722 5720 5718 5716
5765 5765 5766 5767 5768 5769 5770 5772 5773 5774 5775 5776 5776 5778 5779 5781 5781 5781 5782 5782 5782 5782 5782 5781 5781 5780 5779 5778 5777 5776 5775 5774 5772 5770 5769 5767 5766 5764 5762 5760 5758 5756 5754 5752 5750 5748 5746 5744 5742 5740 5738 5736 5733 5731 5729 5727 5725 5723 5721 5719 5717 5715 5713
5763 5764 5765 5766 5767 5768 5769 5770 5771 5772 5773 5774 5775 5776 5778 5778 5779 5779 5780 5780 5780 5780 5779 5779 5778 5777 5776 5775 5774 5773 5772 5771 5769 5767 5766 5765 5763 5761 5759 5757 5755 5753 5751 5749 5747 5745 5743 5741 5739 5737 5735 5733 5731 5728 5726 5724 5722 5720 5718 5716 5714 5712 5710
5762 5762 5763 5764 5765 5766 5767 5768 5769 5769 5770 5772 5773 5774 5775 5776 5776 5777 5777 5777 5777 5777 5777 5776 5776 5775 5774 5773 5771 5770 5769 5768 5766 5765 5764 5762 5760 5758 5756 5754 5752 5750 5748 5747 5745 5743 5740 5738 5736 5735 5732 5730 5728 5726 5724 5722 5719 5717 5715 5713 5711 5709 5707
5760 5761 5762 5762 5764 5764 5765 5766 5767 5768 5769 5770 5771 5772 5773 5773 5774 5774 5775 5775 5775 5775 5774 5774 5773 5772 5771 5770 5769 5767 5766 5765 5764 5762 5761 5759 5757 5755 5753 5751 5749 5748 5746 5744 5742 5740 5738 5736 5734 5732 5729 5727 5725 5723 5721 5719 5716 5714 5712 5710 5708 5706 5704
5758 5759 5760 5761 5762 5763 5763 5764 5765 5766 5767 5768 5769 5770 5770 5771 5771 5772 5772 5772 5772 5772 5772 5771 5770 5769 5768 5767 5766 5765 5764 5763 5761 5759 5757 5755 5754 5752 5750 5748 5747 5745 5743 5741 5739 5737 5735 5733 5730 5728 5726 5724 5722 5720 5718 5716 5713 5711 5709 5707 5705 5703 5701
5756 5757 5758 5759 5760 5761 5762 5763 5764 5765 5766 5767 5767 5767 5768 5768 5769 5769 5770 5770 5770 5769 5769 5768 5767 5766 5765 5764 5763 5762 5761 5760 5758 5756 5754 5752 5751 5749 5747 5745 5744 5742 5740 5738 5736 5734 5732 5730 5727 5725 5722 5721 5719 5717 5714 5712 5710 5708 5706 5704 5702 5700 5698
5754 5755 5756 5757 5758 5760 5760 5761 5762 5763 5764 5764 5764 5765 5765 5766 5766 5767 5767 5767 5767 5766 5766 5765 5764 5763 5762 5761 5760 5759 5758 5757 5755 5754 5752 5750 5748 5746 5744 5742 5741 5739 5737 5736 5734 5732 5729 5727 5724 5721 5720 5718 5716 5713 5711 5709 5707 5705 5703 5701 5699 5697 5695
5752 5754 5754 5755 5756 5757 5758 5759 5760 5760 5761 5761 5762 5763 5763 5764 5764 5764 5764 5764 5764 5763 5763 5762 5761 5761 5760 5759 5758 5757 5755 5754 5752 5751 5749 5747 5745 5743 5742 5740 5738 5737 5735 5733 5731 5729 5726 5724 5721 5719 5717 5715 5713 5710 5708 5706 5704 5702 5700 5698 5695 5693 5691
5751 5752 5753 5753 5754 5754 5755 5756 5756 5757 5758 5759 5760 5760 5761 5761 5762 5762 5762 5761 5761 5761 5760 5759 5759 5758 5757 5756 5755 5754 5752 5751 5749 5748 5746 5744 5742 5741 5739 5738 5736 5734 5732 5730 5728 5726 5723 5721 5719 5716 5714 5712 5710 5708 5706 5704 5702 5699 5697 5695 5693 5691 5688
5749 5750 5751 5751 5752 5752 5753 5753 5754 5755 5756 5756 5757 5758 5758 5759 5759 5759 5759 5759 5758 5758 5757 5756 5756 5755 5754 5753 5752 5751 5749 5748 5746 5745 5743 5741 5740 5738 5737 5735 5733 5731 5729 5727 5725 5723 5721 5719 5716 5714 5711 5709 5707 5705 5703 5701 5699 5697 5694 5692 5690 5688 5685
5747 5748 5749 5749 5749 5750 5751 5751 5752 5752 5753 5754 5754 5755 5755 5755 5755 5756 5756 5756 5756 5755 5754 5753 5753 5752 5751 5750 5749 5747 5746 5745 5743 5742 5740 5739 5737 5736 5734 5732 5730 5728 5726 5724 5722 5720 5718 5716 5714 5711 5708 5706 5704 5703 5701 5698 5696 5694 5691 5689 5686 5684 5682
5745 5746 5746 5747 5747 5748 5748 5749 5750 5750 5751 5751 5751 5751 5752 5752 5753 5753 5754 5753 5753 5752 5751 5750 5750 5750 5749 5747 5746 5744 5743 5742 5741 5739 5738 5736 5735 5733 5731 5729 5727 5725 5723 5721 5719 5717 5715 5713 5711 5708 5706 5704 5702 5700 5698 5696 5693 5691 5688 5686 5683 5681 5678
5743 5744 5744 5744 5744 5745 5746 5747 5748 5748 5749 5749 5749 5749 5749 5750 5750 5751 5751 5750 5749 5749 5748 5748 5747 5747 5745 5744 5743 5742 5740 5739 5738 5736 5735 5733 5732 5730 5728 5726 5724 5723 5721 5719 5717 5715 5713 5710 5708 5706 5704 5702 5700 5697 5695 5693 5690 5688 5685 5683 5680 5678 5675
5741 5741 5741 5741 5741 5742 5743 5744 5745 5746 5746 5746 5746 5747 5747 5747 5748 5748 5748 5747 5746 5746 5745 5745 5744 5743 5742 5741 5740 5739 5738 5736 5735 5733 5732 5731 5729 5727 5726 5724 5722 5720 5718 5716 5714 5712 5710 5708 5706 5704 5702 5699 5697 5695 5692 5690 5687 5685 5682 5679 5677 5674 5671
5739 5739 5739 5739 5739 5739 5740 5742 5742 5743 5744 5744 5744 5745 5745 5745 5745 5745 5745 5744 5743 5743 5742 5742 5741 5740 5739 5738 5737 5736 5734 5733 5732 5731 5729 5728 5726 5725 5723 5721 5719 5718 5716 5714 5712 5710 5707 5705 5703 5701 5699 5697 5694 5691 5689 5686 5683 5681 5678 5675 5673 5670 5667
5736 5736 5737 5737 5738 5738 5739 5739 5740 5741 5741 5742 5742 5743 5743 5743 5743 5742 5742 5741 5740 5740 5740 5739 5738 5737 5736 5735 5734 5733 5732 5731 5729 5728 5727 5725 5723 5722 5720 5718 5717 5715 5713 5711 5709 5707 5705 5703 5701 5698 5696 5694 5691 5688 5685 5683 5680 5677 5674 5672 5669 5666 5664
5733 5733 5734 5735 5736 5736 5736 5736 5737 5739 5739 5740 5740 5740 5740 5740 5740 5739 5739 5738 5738 5737 5737 5736 5735 5734 5733 5732 5731 5730 5729 5728 5727 5725 5724 5722 5721 5719 5718 5716 5714 5713 5711 5709 5707 5705 5703 5700 5698 5696 5693 5690 5687 5685 5682 5679 5676 5674 5671 5669 5666 5663 5661
5730 5731 5732 5732 5733 5733 5733 5733 5735 5736 5737 5737 5737 5737 5737 5737 5737 5736 5736 5735 5735 5734 5734 5733 5731 5731 5730 5729 5728 5727 5726 5725 5724 5722 5721 5719 5718 5717 5715 5714 5712 5711 5709 5707 5705 5703 5700 5698 5695 5693 5690 5687 5684 5681 5679 5676 5673 5670 5668 5666 5663 5660 5657
5728 5729 5729 5730 5731 5731 5731 5732 5732 5733 5734 5734 5734 5734 5734 5734 5733 5733 5733 5732 5732 5731 5730 5729 5728 5728 5727 5726 5725 5724 5723 5722 5721 5720 5718 5717 5715 5714 5713 5712 5710 5708 5707 5705 5702 5700 5697 5695 5692 5689 5686 5684 5681 5678 5675 5673 5671 5668 5665 5662 5660 5657 5654
5725 5726 5727 5727 5728 5728 5729 5729 5730 5730 5731 5731 5731 5731 5731 5730 5729 5729 5729 5729 5729 5727 5727 5726 5725 5725 5724 5723 5722 5721 5720 5719 5718 5717 5715 5714 5713 5712 5711 5709 5708 5706 5704 5702 5700 5697 5695 5692 5689 5687 5684 5681 5678 5675 5672 5670 5668 5665 5662 5659 5656 5654 5651